Index of /20260430/WXO-DD/model_gdps/15km/12/096
Name Last modified Size Description
Parent Directory -
20260430T12Z_MSC_GDPS_AbsoluteVorticity_IsbL-0200_LatLon0.15_PT096H.grib2 2026-04-30 16:24 1.5M
20260430T12Z_MSC_GDPS_AbsoluteVorticity_IsbL-0250_LatLon0.15_PT096H.grib2 2026-04-30 16:24 1.3M
20260430T12Z_MSC_GDPS_AbsoluteVorticity_IsbL-0500_LatLon0.15_PT096H.grib2 2026-04-30 16:24 1.5M
20260430T12Z_MSC_GDPS_AbsoluteVorticity_IsbL-0700_LatLon0.15_PT096H.grib2 2026-04-30 16:24 1.6M
20260430T12Z_MSC_GDPS_AbsoluteVorticity_IsbL-0850_LatLon0.15_PT096H.grib2 2026-04-30 16:24 1.6M
20260430T12Z_MSC_GDPS_AirTemp-Max_AGL-2m_LatLon0.15_PT096H.grib2 2026-04-30 16:24 741K
20260430T12Z_MSC_GDPS_AirTemp-Min_AGL-2m_LatLon0.15_PT096H.grib2 2026-04-30 16:24 790K
20260430T12Z_MSC_GDPS_AirTemp_AGL-120m_LatLon0.15_PT096H.grib2 2026-04-30 16:24 904K
20260430T12Z_MSC_GDPS_AirTemp_AGL-2m_LatLon0.15_PT096H.grib2 2026-04-30 16:24 1.0M
20260430T12Z_MSC_GDPS_AirTemp_AGL-40m_LatLon0.15_PT096H.grib2 2026-04-30 16:24 807K
20260430T12Z_MSC_GDPS_AirTemp_AGL-80m_LatLon0.15_PT096H.grib2 2026-04-30 16:24 796K
20260430T12Z_MSC_GDPS_AirTemp_IsbL-0001_LatLon0.15_PT096H.grib2 2026-04-30 16:24 653K
20260430T12Z_MSC_GDPS_AirTemp_IsbL-0005_LatLon0.15_PT096H.grib2 2026-04-30 16:24 687K
20260430T12Z_MSC_GDPS_AirTemp_IsbL-0010_LatLon0.15_PT096H.grib2 2026-04-30 16:24 698K
20260430T12Z_MSC_GDPS_AirTemp_IsbL-0020_LatLon0.15_PT096H.grib2 2026-04-30 16:24 791K
20260430T12Z_MSC_GDPS_AirTemp_IsbL-0030_LatLon0.15_PT096H.grib2 2026-04-30 16:24 841K
20260430T12Z_MSC_GDPS_AirTemp_IsbL-0050_LatLon0.15_PT096H.grib2 2026-04-30 16:24 815K
20260430T12Z_MSC_GDPS_AirTemp_IsbL-0100_LatLon0.15_PT096H.grib2 2026-04-30 16:24 968K
20260430T12Z_MSC_GDPS_AirTemp_IsbL-0150_LatLon0.15_PT096H.grib2 2026-04-30 16:24 969K
20260430T12Z_MSC_GDPS_AirTemp_IsbL-0175_LatLon0.15_PT096H.grib2 2026-04-30 16:24 958K
20260430T12Z_MSC_GDPS_AirTemp_IsbL-0200_LatLon0.15_PT096H.grib2 2026-04-30 16:24 971K
20260430T12Z_MSC_GDPS_AirTemp_IsbL-0225_LatLon0.15_PT096H.grib2 2026-04-30 16:24 1.0M
20260430T12Z_MSC_GDPS_AirTemp_IsbL-0250_LatLon0.15_PT096H.grib2 2026-04-30 16:24 1.0M
20260430T12Z_MSC_GDPS_AirTemp_IsbL-0275_LatLon0.15_PT096H.grib2 2026-04-30 16:24 1.0M
20260430T12Z_MSC_GDPS_AirTemp_IsbL-0300_LatLon0.15_PT096H.grib2 2026-04-30 16:24 1.0M
20260430T12Z_MSC_GDPS_AirTemp_IsbL-0350_LatLon0.15_PT096H.grib2 2026-04-30 16:24 928K
20260430T12Z_MSC_GDPS_AirTemp_IsbL-0400_LatLon0.15_PT096H.grib2 2026-04-30 16:24 941K
20260430T12Z_MSC_GDPS_AirTemp_IsbL-0450_LatLon0.15_PT096H.grib2 2026-04-30 16:24 959K
20260430T12Z_MSC_GDPS_AirTemp_IsbL-0500_LatLon0.15_PT096H.grib2 2026-04-30 16:24 1.0M
20260430T12Z_MSC_GDPS_AirTemp_IsbL-0550_LatLon0.15_PT096H.grib2 2026-04-30 16:24 1.0M
20260430T12Z_MSC_GDPS_AirTemp_IsbL-0600_LatLon0.15_PT096H.grib2 2026-04-30 16:24 890K
20260430T12Z_MSC_GDPS_AirTemp_IsbL-0650_LatLon0.15_PT096H.grib2 2026-04-30 16:24 921K
20260430T12Z_MSC_GDPS_AirTemp_IsbL-0700_LatLon0.15_PT096H.grib2 2026-04-30 16:24 958K
20260430T12Z_MSC_GDPS_AirTemp_IsbL-0750_LatLon0.15_PT096H.grib2 2026-04-30 16:24 1.0M
20260430T12Z_MSC_GDPS_AirTemp_IsbL-0800_LatLon0.15_PT096H.grib2 2026-04-30 16:24 1.1M
20260430T12Z_MSC_GDPS_AirTemp_IsbL-0850_LatLon0.15_PT096H.grib2 2026-04-30 16:24 1.1M
20260430T12Z_MSC_GDPS_AirTemp_IsbL-0875_LatLon0.15_PT096H.grib2 2026-04-30 16:24 1.2M
20260430T12Z_MSC_GDPS_AirTemp_IsbL-0900_LatLon0.15_PT096H.grib2 2026-04-30 16:24 1.1M
20260430T12Z_MSC_GDPS_AirTemp_IsbL-0925_LatLon0.15_PT096H.grib2 2026-04-30 16:24 1.1M
20260430T12Z_MSC_GDPS_AirTemp_IsbL-0950_LatLon0.15_PT096H.grib2 2026-04-30 16:24 1.1M
20260430T12Z_MSC_GDPS_AirTemp_IsbL-0970_LatLon0.15_PT096H.grib2 2026-04-30 16:24 1.1M
20260430T12Z_MSC_GDPS_AirTemp_IsbL-0985_LatLon0.15_PT096H.grib2 2026-04-30 16:24 1.1M
20260430T12Z_MSC_GDPS_AirTemp_IsbL-1000_LatLon0.15_PT096H.grib2 2026-04-30 16:24 1.1M
20260430T12Z_MSC_GDPS_AirTemp_IsbL-1015_LatLon0.15_PT096H.grib2 2026-04-30 16:24 865K
20260430T12Z_MSC_GDPS_Albedo_Sfc_LatLon0.15_PT096H.grib2 2026-04-30 16:24 240K
20260430T12Z_MSC_GDPS_CAPE_Sfc_LatLon0.15_PT096H.grib2 2026-04-30 16:24 3.8M
20260430T12Z_MSC_GDPS_CIN_Sfc_LatLon0.15_PT096H.grib2 2026-04-30 16:24 2.9M
20260430T12Z_MSC_GDPS_CloudWater_EAtm_LatLon0.15_PT096H.grib2 2026-04-30 16:24 534K
20260430T12Z_MSC_GDPS_ConvectivePrecip-Accum_Sfc_LatLon0.15_PT096H.grib2 2026-04-30 16:24 3.3M
20260430T12Z_MSC_GDPS_DewPointDepression_AGL-2m_LatLon0.15_PT096H.grib2 2026-04-30 16:24 758K
20260430T12Z_MSC_GDPS_DewPointDepression_IsbL-0010_LatLon0.15_PT096H.grib2 2026-04-30 16:24 70K
20260430T12Z_MSC_GDPS_DewPointDepression_IsbL-0020_LatLon0.15_PT096H.grib2 2026-04-30 16:24 75K
20260430T12Z_MSC_GDPS_DewPointDepression_IsbL-0030_LatLon0.15_PT096H.grib2 2026-04-30 16:24 87K
20260430T12Z_MSC_GDPS_DewPointDepression_IsbL-0050_LatLon0.15_PT096H.grib2 2026-04-30 16:24 385K
20260430T12Z_MSC_GDPS_DewPointDepression_IsbL-0100_LatLon0.15_PT096H.grib2 2026-04-30 16:24 403K
20260430T12Z_MSC_GDPS_DewPointDepression_IsbL-0150_LatLon0.15_PT096H.grib2 2026-04-30 16:24 469K
20260430T12Z_MSC_GDPS_DewPointDepression_IsbL-0175_LatLon0.15_PT096H.grib2 2026-04-30 16:24 577K
20260430T12Z_MSC_GDPS_DewPointDepression_IsbL-0200_LatLon0.15_PT096H.grib2 2026-04-30 16:24 681K
20260430T12Z_MSC_GDPS_DewPointDepression_IsbL-0225_LatLon0.15_PT096H.grib2 2026-04-30 16:24 772K
20260430T12Z_MSC_GDPS_DewPointDepression_IsbL-0250_LatLon0.15_PT096H.grib2 2026-04-30 16:24 855K
20260430T12Z_MSC_GDPS_DewPointDepression_IsbL-0275_LatLon0.15_PT096H.grib2 2026-04-30 16:24 877K
20260430T12Z_MSC_GDPS_DewPointDepression_IsbL-0300_LatLon0.15_PT096H.grib2 2026-04-30 16:24 922K
20260430T12Z_MSC_GDPS_DewPointDepression_IsbL-0350_LatLon0.15_PT096H.grib2 2026-04-30 16:24 958K
20260430T12Z_MSC_GDPS_DewPointDepression_IsbL-0400_LatLon0.15_PT096H.grib2 2026-04-30 16:24 1.0M
20260430T12Z_MSC_GDPS_DewPointDepression_IsbL-0450_LatLon0.15_PT096H.grib2 2026-04-30 16:24 1.0M
20260430T12Z_MSC_GDPS_DewPointDepression_IsbL-0500_LatLon0.15_PT096H.grib2 2026-04-30 16:24 1.0M
20260430T12Z_MSC_GDPS_DewPointDepression_IsbL-0550_LatLon0.15_PT096H.grib2 2026-04-30 16:24 1.0M
20260430T12Z_MSC_GDPS_DewPointDepression_IsbL-0600_LatLon0.15_PT096H.grib2 2026-04-30 16:24 1.0M
20260430T12Z_MSC_GDPS_DewPointDepression_IsbL-0650_LatLon0.15_PT096H.grib2 2026-04-30 16:24 1.1M
20260430T12Z_MSC_GDPS_DewPointDepression_IsbL-0700_LatLon0.15_PT096H.grib2 2026-04-30 16:24 1.1M
20260430T12Z_MSC_GDPS_DewPointDepression_IsbL-0750_LatLon0.15_PT096H.grib2 2026-04-30 16:24 1.1M
20260430T12Z_MSC_GDPS_DewPointDepression_IsbL-0800_LatLon0.15_PT096H.grib2 2026-04-30 16:24 1.2M
20260430T12Z_MSC_GDPS_DewPointDepression_IsbL-0850_LatLon0.15_PT096H.grib2 2026-04-30 16:24 1.2M
20260430T12Z_MSC_GDPS_DewPointDepression_IsbL-0875_LatLon0.15_PT096H.grib2 2026-04-30 16:24 1.1M
20260430T12Z_MSC_GDPS_DewPointDepression_IsbL-0900_LatLon0.15_PT096H.grib2 2026-04-30 16:24 1.1M
20260430T12Z_MSC_GDPS_DewPointDepression_IsbL-0925_LatLon0.15_PT096H.grib2 2026-04-30 16:24 1.0M
20260430T12Z_MSC_GDPS_DewPointDepression_IsbL-0950_LatLon0.15_PT096H.grib2 2026-04-30 16:24 1.0M
20260430T12Z_MSC_GDPS_DewPointDepression_IsbL-0970_LatLon0.15_PT096H.grib2 2026-04-30 16:24 1.0M
20260430T12Z_MSC_GDPS_DewPointDepression_IsbL-0985_LatLon0.15_PT096H.grib2 2026-04-30 16:24 1.0M
20260430T12Z_MSC_GDPS_DewPointDepression_IsbL-1000_LatLon0.15_PT096H.grib2 2026-04-30 16:24 973K
20260430T12Z_MSC_GDPS_DewPointDepression_IsbL-1015_LatLon0.15_PT096H.grib2 2026-04-30 16:24 913K
20260430T12Z_MSC_GDPS_DewPoint_AGL-2m_LatLon0.15_PT096H.grib2 2026-04-30 16:24 612K
20260430T12Z_MSC_GDPS_DownwardLongwaveRadiationFlux-Accum_Sfc_LatLon0.15_PT096H.grib2 2026-04-30 16:24 722K
20260430T12Z_MSC_GDPS_DownwardShortwaveRadiationFlux-Accum_NTAtm_LatLon0.15_PT096H.grib2 2026-04-30 16:24 205K
20260430T12Z_MSC_GDPS_DownwardShortwaveRadiationFlux-Accum_Sfc_LatLon0.15_PT096H.grib2 2026-04-30 16:24 937K
20260430T12Z_MSC_GDPS_FreezingRain-Accum12h_Sfc_LatLon0.15_PT096H.grib2 2026-04-30 16:24 96K
20260430T12Z_MSC_GDPS_FreezingRain-Accum1h_Sfc_LatLon0.15_PT096H.grib2 2026-04-30 16:24 46K
20260430T12Z_MSC_GDPS_FreezingRain-Accum24h_Sfc_LatLon0.15_PT096H.grib2 2026-04-30 16:24 152K
20260430T12Z_MSC_GDPS_FreezingRain-Accum3h_Sfc_LatLon0.15_PT096H.grib2 2026-04-30 16:24 54K
20260430T12Z_MSC_GDPS_FreezingRain-Accum6h_Sfc_LatLon0.15_PT096H.grib2 2026-04-30 16:24 72K
20260430T12Z_MSC_GDPS_FreezingRain-Accum_Sfc_LatLon0.15_PT096H.grib2 2026-04-30 16:24 363K
20260430T12Z_MSC_GDPS_GeopotentialHeight_IsbL-0001_LatLon0.15_PT096H.grib2 2026-04-30 16:24 420K
20260430T12Z_MSC_GDPS_GeopotentialHeight_IsbL-0005_LatLon0.15_PT096H.grib2 2026-04-30 16:24 486K
20260430T12Z_MSC_GDPS_GeopotentialHeight_IsbL-0010_LatLon0.15_PT096H.grib2 2026-04-30 16:24 477K
20260430T12Z_MSC_GDPS_GeopotentialHeight_IsbL-0020_LatLon0.15_PT096H.grib2 2026-04-30 16:24 412K
20260430T12Z_MSC_GDPS_GeopotentialHeight_IsbL-0030_LatLon0.15_PT096H.grib2 2026-04-30 16:24 571K
20260430T12Z_MSC_GDPS_GeopotentialHeight_IsbL-0050_LatLon0.15_PT096H.grib2 2026-04-30 16:24 571K
20260430T12Z_MSC_GDPS_GeopotentialHeight_IsbL-0100_LatLon0.15_PT096H.grib2 2026-04-30 16:24 608K
20260430T12Z_MSC_GDPS_GeopotentialHeight_IsbL-0150_LatLon0.15_PT096H.grib2 2026-04-30 16:24 626K
20260430T12Z_MSC_GDPS_GeopotentialHeight_IsbL-0175_LatLon0.15_PT096H.grib2 2026-04-30 16:24 630K
20260430T12Z_MSC_GDPS_GeopotentialHeight_IsbL-0200_LatLon0.15_PT096H.grib2 2026-04-30 16:24 635K
20260430T12Z_MSC_GDPS_GeopotentialHeight_IsbL-0225_LatLon0.15_PT096H.grib2 2026-04-30 16:24 638K
20260430T12Z_MSC_GDPS_GeopotentialHeight_IsbL-0250_LatLon0.15_PT096H.grib2 2026-04-30 16:24 642K
20260430T12Z_MSC_GDPS_GeopotentialHeight_IsbL-0275_LatLon0.15_PT096H.grib2 2026-04-30 16:24 641K
20260430T12Z_MSC_GDPS_GeopotentialHeight_IsbL-0300_LatLon0.15_PT096H.grib2 2026-04-30 16:24 633K
20260430T12Z_MSC_GDPS_GeopotentialHeight_IsbL-0350_LatLon0.15_PT096H.grib2 2026-04-30 16:24 630K
20260430T12Z_MSC_GDPS_GeopotentialHeight_IsbL-0400_LatLon0.15_PT096H.grib2 2026-04-30 16:24 620K
20260430T12Z_MSC_GDPS_GeopotentialHeight_IsbL-0450_LatLon0.15_PT096H.grib2 2026-04-30 16:24 609K
20260430T12Z_MSC_GDPS_GeopotentialHeight_IsbL-0500_LatLon0.15_PT096H.grib2 2026-04-30 16:24 601K
20260430T12Z_MSC_GDPS_GeopotentialHeight_IsbL-0550_LatLon0.15_PT096H.grib2 2026-04-30 16:24 524K
20260430T12Z_MSC_GDPS_GeopotentialHeight_IsbL-0600_LatLon0.15_PT096H.grib2 2026-04-30 16:24 523K
20260430T12Z_MSC_GDPS_GeopotentialHeight_IsbL-0650_LatLon0.15_PT096H.grib2 2026-04-30 16:24 690K
20260430T12Z_MSC_GDPS_GeopotentialHeight_IsbL-0700_LatLon0.15_PT096H.grib2 2026-04-30 16:24 691K
20260430T12Z_MSC_GDPS_GeopotentialHeight_IsbL-0750_LatLon0.15_PT096H.grib2 2026-04-30 16:24 695K
20260430T12Z_MSC_GDPS_GeopotentialHeight_IsbL-0800_LatLon0.15_PT096H.grib2 2026-04-30 16:24 704K
20260430T12Z_MSC_GDPS_GeopotentialHeight_IsbL-0850_LatLon0.15_PT096H.grib2 2026-04-30 16:24 710K
20260430T12Z_MSC_GDPS_GeopotentialHeight_IsbL-0875_LatLon0.15_PT096H.grib2 2026-04-30 16:24 718K
20260430T12Z_MSC_GDPS_GeopotentialHeight_IsbL-0900_LatLon0.15_PT096H.grib2 2026-04-30 16:24 723K
20260430T12Z_MSC_GDPS_GeopotentialHeight_IsbL-0925_LatLon0.15_PT096H.grib2 2026-04-30 16:24 731K
20260430T12Z_MSC_GDPS_GeopotentialHeight_IsbL-0950_LatLon0.15_PT096H.grib2 2026-04-30 16:24 736K
20260430T12Z_MSC_GDPS_GeopotentialHeight_IsbL-0970_LatLon0.15_PT096H.grib2 2026-04-30 16:24 747K
20260430T12Z_MSC_GDPS_GeopotentialHeight_IsbL-0985_LatLon0.15_PT096H.grib2 2026-04-30 16:24 762K
20260430T12Z_MSC_GDPS_GeopotentialHeight_IsbL-1000_LatLon0.15_PT096H.grib2 2026-04-30 16:24 783K
20260430T12Z_MSC_GDPS_GeopotentialHeight_IsbL-1015_LatLon0.15_PT096H.grib2 2026-04-30 16:24 614K
20260430T12Z_MSC_GDPS_Humidex_Sfc_LatLon0.15_PT096H.grib2 2026-04-30 16:24 5.3M
20260430T12Z_MSC_GDPS_IcePellets-Accum12h_Sfc_LatLon0.15_PT096H.grib2 2026-04-30 16:24 13K
20260430T12Z_MSC_GDPS_IcePellets-Accum1h_Sfc_LatLon0.15_PT096H.grib2 2026-04-30 16:24 4.6K
20260430T12Z_MSC_GDPS_IcePellets-Accum24h_Sfc_LatLon0.15_PT096H.grib2 2026-04-30 16:24 18K
20260430T12Z_MSC_GDPS_IcePellets-Accum3h_Sfc_LatLon0.15_PT096H.grib2 2026-04-30 16:24 5.6K
20260430T12Z_MSC_GDPS_IcePellets-Accum6h_Sfc_LatLon0.15_PT096H.grib2 2026-04-30 16:24 7.9K
20260430T12Z_MSC_GDPS_IcePellets-Accum_Sfc_LatLon0.15_PT096H.grib2 2026-04-30 16:24 81K
20260430T12Z_MSC_GDPS_KIndex_Sfc_LatLon0.15_PT096H.grib2 2026-04-30 16:24 6.5M
20260430T12Z_MSC_GDPS_LatentHeatNetFlux_Sfc_LatLon0.15_PT096H.grib2 2026-04-30 16:24 556K
20260430T12Z_MSC_GDPS_LiftedIndex-MU-VT_IsbL-0500_LatLon0.15_PT096H.grib2 2026-04-30 16:24 5.4M
20260430T12Z_MSC_GDPS_NetLongwaveRadiationFlux-Accum_Sfc_LatLon0.15_PT096H.grib2 2026-04-30 16:24 964K
20260430T12Z_MSC_GDPS_NetShortwaveRadiationFlux-Accum_Sfc_LatLon0.15_PT096H.grib2 2026-04-30 16:24 924K
20260430T12Z_MSC_GDPS_O3MixingRatio_Sfc_LatLon0.15_PT096H.grib2 2026-04-30 16:45 2.2M
20260430T12Z_MSC_GDPS_O3_EAtm_LatLon0.15_PT096H.grib2 2026-04-30 16:45 2.4M
20260430T12Z_MSC_GDPS_PlanetaryBoundaryLayerHeight_Sfc_LatLon0.15_PT096H.grib2 2026-04-30 16:24 2.5M
20260430T12Z_MSC_GDPS_Precip-Accum12h_Sfc_LatLon0.15_PT096H.grib2 2026-04-30 16:24 4.0M
20260430T12Z_MSC_GDPS_Precip-Accum1h_Sfc_LatLon0.15_PT096H.grib2 2026-04-30 16:24 3.3M
20260430T12Z_MSC_GDPS_Precip-Accum24h_Sfc_LatLon0.15_PT096H.grib2 2026-04-30 16:24 4.5M
20260430T12Z_MSC_GDPS_Precip-Accum3h_Sfc_LatLon0.15_PT096H.grib2 2026-04-30 16:24 3.5M
20260430T12Z_MSC_GDPS_Precip-Accum6h_Sfc_LatLon0.15_PT096H.grib2 2026-04-30 16:24 3.8M
20260430T12Z_MSC_GDPS_Precip-Accum_Sfc_LatLon0.15_PT096H.grib2 2026-04-30 16:24 5.3M
20260430T12Z_MSC_GDPS_PrecipRate_Sfc_LatLon0.15_PT096H.grib2 2026-04-30 16:24 3.0M
20260430T12Z_MSC_GDPS_PrecipType-Instant_Sfc_LatLon0.15_PT096H.grib2 2026-04-30 16:24 1.6M
20260430T12Z_MSC_GDPS_Pressure_MSL_LatLon0.15_PT096H.grib2 2026-04-30 16:24 819K
20260430T12Z_MSC_GDPS_Pressure_PVU-1.5_LatLon0.15_PT096H.grib2 2026-04-30 16:24 5.8M
20260430T12Z_MSC_GDPS_Pressure_PVU-1_LatLon0.15_PT096H.grib2 2026-04-30 16:24 6.0M
20260430T12Z_MSC_GDPS_Pressure_PVU-2_LatLon0.15_PT096H.grib2 2026-04-30 16:24 5.6M
20260430T12Z_MSC_GDPS_Pressure_Sfc_LatLon0.15_PT096H.grib2 2026-04-30 16:24 1.1M
20260430T12Z_MSC_GDPS_RadiativeTemp_Sfc_LatLon0.15_PT096H.grib2 2026-04-30 16:24 499K
20260430T12Z_MSC_GDPS_Rain-Accum12h_Sfc_LatLon0.15_PT096H.grib2 2026-04-30 16:24 2.7M
20260430T12Z_MSC_GDPS_Rain-Accum1h_Sfc_LatLon0.15_PT096H.grib2 2026-04-30 16:24 1.7M
20260430T12Z_MSC_GDPS_Rain-Accum24h_Sfc_LatLon0.15_PT096H.grib2 2026-04-30 16:24 3.1M
20260430T12Z_MSC_GDPS_Rain-Accum3h_Sfc_LatLon0.15_PT096H.grib2 2026-04-30 16:24 1.9M
20260430T12Z_MSC_GDPS_Rain-Accum6h_Sfc_LatLon0.15_PT096H.grib2 2026-04-30 16:24 2.4M
20260430T12Z_MSC_GDPS_Rain-Accum_Sfc_LatLon0.15_PT096H.grib2 2026-04-30 16:24 4.1M
20260430T12Z_MSC_GDPS_RelativeHumidity_AGL-2m_LatLon0.15_PT096H.grib2 2026-04-30 16:24 1.1M
20260430T12Z_MSC_GDPS_RelativeHumidity_IsbL-0010_LatLon0.15_PT096H.grib2 2026-04-30 16:24 125K
20260430T12Z_MSC_GDPS_RelativeHumidity_IsbL-0020_LatLon0.15_PT096H.grib2 2026-04-30 16:24 168K
20260430T12Z_MSC_GDPS_RelativeHumidity_IsbL-0030_LatLon0.15_PT096H.grib2 2026-04-30 16:24 271K
20260430T12Z_MSC_GDPS_RelativeHumidity_IsbL-0050_LatLon0.15_PT096H.grib2 2026-04-30 16:24 340K
20260430T12Z_MSC_GDPS_RelativeHumidity_IsbL-0100_LatLon0.15_PT096H.grib2 2026-04-30 16:24 503K
20260430T12Z_MSC_GDPS_RelativeHumidity_IsbL-0150_LatLon0.15_PT096H.grib2 2026-04-30 16:24 655K
20260430T12Z_MSC_GDPS_RelativeHumidity_IsbL-0175_LatLon0.15_PT096H.grib2 2026-04-30 16:24 785K
20260430T12Z_MSC_GDPS_RelativeHumidity_IsbL-0200_LatLon0.15_PT096H.grib2 2026-04-30 16:24 704K
20260430T12Z_MSC_GDPS_RelativeHumidity_IsbL-0225_LatLon0.15_PT096H.grib2 2026-04-30 16:24 789K
20260430T12Z_MSC_GDPS_RelativeHumidity_IsbL-0250_LatLon0.15_PT096H.grib2 2026-04-30 16:24 862K
20260430T12Z_MSC_GDPS_RelativeHumidity_IsbL-0275_LatLon0.15_PT096H.grib2 2026-04-30 16:24 886K
20260430T12Z_MSC_GDPS_RelativeHumidity_IsbL-0300_LatLon0.15_PT096H.grib2 2026-04-30 16:24 929K
20260430T12Z_MSC_GDPS_RelativeHumidity_IsbL-0350_LatLon0.15_PT096H.grib2 2026-04-30 16:24 951K
20260430T12Z_MSC_GDPS_RelativeHumidity_IsbL-0400_LatLon0.15_PT096H.grib2 2026-04-30 16:24 972K
20260430T12Z_MSC_GDPS_RelativeHumidity_IsbL-0450_LatLon0.15_PT096H.grib2 2026-04-30 16:24 1.0M
20260430T12Z_MSC_GDPS_RelativeHumidity_IsbL-0500_LatLon0.15_PT096H.grib2 2026-04-30 16:24 1.0M
20260430T12Z_MSC_GDPS_RelativeHumidity_IsbL-0550_LatLon0.15_PT096H.grib2 2026-04-30 16:24 1.0M
20260430T12Z_MSC_GDPS_RelativeHumidity_IsbL-0600_LatLon0.15_PT096H.grib2 2026-04-30 16:24 1.0M
20260430T12Z_MSC_GDPS_RelativeHumidity_IsbL-0650_LatLon0.15_PT096H.grib2 2026-04-30 16:24 1.1M
20260430T12Z_MSC_GDPS_RelativeHumidity_IsbL-0700_LatLon0.15_PT096H.grib2 2026-04-30 16:24 1.1M
20260430T12Z_MSC_GDPS_RelativeHumidity_IsbL-0750_LatLon0.15_PT096H.grib2 2026-04-30 16:24 1.2M
20260430T12Z_MSC_GDPS_RelativeHumidity_IsbL-0800_LatLon0.15_PT096H.grib2 2026-04-30 16:24 1.2M
20260430T12Z_MSC_GDPS_RelativeHumidity_IsbL-0850_LatLon0.15_PT096H.grib2 2026-04-30 16:24 1.3M
20260430T12Z_MSC_GDPS_RelativeHumidity_IsbL-0875_LatLon0.15_PT096H.grib2 2026-04-30 16:24 1.3M
20260430T12Z_MSC_GDPS_RelativeHumidity_IsbL-0900_LatLon0.15_PT096H.grib2 2026-04-30 16:24 1.2M
20260430T12Z_MSC_GDPS_RelativeHumidity_IsbL-0925_LatLon0.15_PT096H.grib2 2026-04-30 16:24 1.2M
20260430T12Z_MSC_GDPS_RelativeHumidity_IsbL-0950_LatLon0.15_PT096H.grib2 2026-04-30 16:24 1.2M
20260430T12Z_MSC_GDPS_RelativeHumidity_IsbL-0970_LatLon0.15_PT096H.grib2 2026-04-30 16:24 1.2M
20260430T12Z_MSC_GDPS_RelativeHumidity_IsbL-0985_LatLon0.15_PT096H.grib2 2026-04-30 16:24 1.1M
20260430T12Z_MSC_GDPS_RelativeHumidity_IsbL-1000_LatLon0.15_PT096H.grib2 2026-04-30 16:24 1.1M
20260430T12Z_MSC_GDPS_RelativeHumidity_IsbL-1015_LatLon0.15_PT096H.grib2 2026-04-30 16:24 1.0M
20260430T12Z_MSC_GDPS_RelativeVorticity_IsbL-0200_LatLon0.15_PT096H.grib2 2026-04-30 16:24 1.5M
20260430T12Z_MSC_GDPS_RelativeVorticity_IsbL-0250_LatLon0.15_PT096H.grib2 2026-04-30 16:24 1.3M
20260430T12Z_MSC_GDPS_RelativeVorticity_IsbL-0500_LatLon0.15_PT096H.grib2 2026-04-30 16:24 1.4M
20260430T12Z_MSC_GDPS_RelativeVorticity_IsbL-0700_LatLon0.15_PT096H.grib2 2026-04-30 16:24 1.6M
20260430T12Z_MSC_GDPS_RelativeVorticity_IsbL-0850_LatLon0.15_PT096H.grib2 2026-04-30 16:24 1.6M
20260430T12Z_MSC_GDPS_Runoff-Accum_Sfc_LatLon0.15_PT096H.grib2 2026-04-30 16:24 129K
20260430T12Z_MSC_GDPS_SensibleHeatNetFlux_Sfc_LatLon0.15_PT096H.grib2 2026-04-30 16:24 649K
20260430T12Z_MSC_GDPS_ShowalterIndex_IsbL-0500_LatLon0.15_PT096H.grib2 2026-04-30 16:24 6.2M
20260430T12Z_MSC_GDPS_Snow-Accum12h_Sfc_LatLon0.15_PT096H.grib2 2026-04-30 16:24 1.4M
20260430T12Z_MSC_GDPS_Snow-Accum1h_Sfc_LatLon0.15_PT096H.grib2 2026-04-30 16:24 1.1M
20260430T12Z_MSC_GDPS_Snow-Accum24h_Sfc_LatLon0.15_PT096H.grib2 2026-04-30 16:24 1.6M
20260430T12Z_MSC_GDPS_Snow-Accum3h_Sfc_LatLon0.15_PT096H.grib2 2026-04-30 16:24 1.1M
20260430T12Z_MSC_GDPS_Snow-Accum6h_Sfc_LatLon0.15_PT096H.grib2 2026-04-30 16:24 1.5M
20260430T12Z_MSC_GDPS_Snow-Accum_Sfc_LatLon0.15_PT096H.grib2 2026-04-30 16:24 2.0M
20260430T12Z_MSC_GDPS_SnowDensity_Sfc_LatLon0.15_PT096H.grib2 2026-04-30 16:24 262K
20260430T12Z_MSC_GDPS_SnowDepth_Sfc_LatLon0.15_PT096H.grib2 2026-04-30 16:24 1.7M
20260430T12Z_MSC_GDPS_SoilTemp_DBS-0to10cm_LatLon0.15_PT096H.grib2 2026-04-30 16:24 512K
20260430T12Z_MSC_GDPS_SoilTemp_Sfc_LatLon0.15_PT096H.grib2 2026-04-30 16:24 574K
20260430T12Z_MSC_GDPS_SoilVolumetricIceContent_Sfc_LatLon0.15_PT096H.grib2 2026-04-30 16:24 195K
20260430T12Z_MSC_GDPS_SoilVolumetricWaterContent_DBS-0to10cm_LatLon0.15_PT096H.grib2 2026-04-30 16:24 589K
20260430T12Z_MSC_GDPS_SoilVolumetricWaterContent_DBS-0to1cm_LatLon0.15_PT096H.grib2 2026-04-30 16:24 649K
20260430T12Z_MSC_GDPS_SpecificHumidity_AGL-120m_LatLon0.15_PT096H.grib2 2026-04-30 16:24 1.1M
20260430T12Z_MSC_GDPS_SpecificHumidity_AGL-2m_LatLon0.15_PT096H.grib2 2026-04-30 16:24 1.2M
20260430T12Z_MSC_GDPS_SpecificHumidity_AGL-40m_LatLon0.15_PT096H.grib2 2026-04-30 16:24 1.1M
20260430T12Z_MSC_GDPS_SpecificHumidity_AGL-80m_LatLon0.15_PT096H.grib2 2026-04-30 16:24 1.1M
20260430T12Z_MSC_GDPS_SpecificHumidity_IsbL-0001_LatLon0.15_PT096H.grib2 2026-04-30 16:24 1.3M
20260430T12Z_MSC_GDPS_SpecificHumidity_IsbL-0005_LatLon0.15_PT096H.grib2 2026-04-30 16:24 1.2M
20260430T12Z_MSC_GDPS_SpecificHumidity_IsbL-0010_LatLon0.15_PT096H.grib2 2026-04-30 16:24 1.3M
20260430T12Z_MSC_GDPS_SpecificHumidity_IsbL-0020_LatLon0.15_PT096H.grib2 2026-04-30 16:24 1.3M
20260430T12Z_MSC_GDPS_SpecificHumidity_IsbL-0030_LatLon0.15_PT096H.grib2 2026-04-30 16:24 1.3M
20260430T12Z_MSC_GDPS_SpecificHumidity_IsbL-0050_LatLon0.15_PT096H.grib2 2026-04-30 16:24 1.6M
20260430T12Z_MSC_GDPS_SpecificHumidity_IsbL-0100_LatLon0.15_PT096H.grib2 2026-04-30 16:24 1.3M
20260430T12Z_MSC_GDPS_SpecificHumidity_IsbL-0150_LatLon0.15_PT096H.grib2 2026-04-30 16:24 1.3M
20260430T12Z_MSC_GDPS_SpecificHumidity_IsbL-0175_LatLon0.15_PT096H.grib2 2026-04-30 16:24 1.3M
20260430T12Z_MSC_GDPS_SpecificHumidity_IsbL-0200_LatLon0.15_PT096H.grib2 2026-04-30 16:24 1.3M
20260430T12Z_MSC_GDPS_SpecificHumidity_IsbL-0225_LatLon0.15_PT096H.grib2 2026-04-30 16:24 1.3M
20260430T12Z_MSC_GDPS_SpecificHumidity_IsbL-0250_LatLon0.15_PT096H.grib2 2026-04-30 16:24 1.4M
20260430T12Z_MSC_GDPS_SpecificHumidity_IsbL-0275_LatLon0.15_PT096H.grib2 2026-04-30 16:24 1.3M
20260430T12Z_MSC_GDPS_SpecificHumidity_IsbL-0300_LatLon0.15_PT096H.grib2 2026-04-30 16:24 1.2M
20260430T12Z_MSC_GDPS_SpecificHumidity_IsbL-0350_LatLon0.15_PT096H.grib2 2026-04-30 16:24 1.5M
20260430T12Z_MSC_GDPS_SpecificHumidity_IsbL-0400_LatLon0.15_PT096H.grib2 2026-04-30 16:24 1.5M
20260430T12Z_MSC_GDPS_SpecificHumidity_IsbL-0450_LatLon0.15_PT096H.grib2 2026-04-30 16:24 1.6M
20260430T12Z_MSC_GDPS_SpecificHumidity_IsbL-0500_LatLon0.15_PT096H.grib2 2026-04-30 16:24 1.4M
20260430T12Z_MSC_GDPS_SpecificHumidity_IsbL-0550_LatLon0.15_PT096H.grib2 2026-04-30 16:24 1.6M
20260430T12Z_MSC_GDPS_SpecificHumidity_IsbL-0600_LatLon0.15_PT096H.grib2 2026-04-30 16:24 1.7M
20260430T12Z_MSC_GDPS_SpecificHumidity_IsbL-0650_LatLon0.15_PT096H.grib2 2026-04-30 16:24 1.5M
20260430T12Z_MSC_GDPS_SpecificHumidity_IsbL-0700_LatLon0.15_PT096H.grib2 2026-04-30 16:24 1.6M
20260430T12Z_MSC_GDPS_SpecificHumidity_IsbL-0750_LatLon0.15_PT096H.grib2 2026-04-30 16:24 1.7M
20260430T12Z_MSC_GDPS_SpecificHumidity_IsbL-0800_LatLon0.15_PT096H.grib2 2026-04-30 16:24 1.9M
20260430T12Z_MSC_GDPS_SpecificHumidity_IsbL-0850_LatLon0.15_PT096H.grib2 2026-04-30 16:24 1.9M
20260430T12Z_MSC_GDPS_SpecificHumidity_IsbL-0875_LatLon0.15_PT096H.grib2 2026-04-30 16:24 1.9M
20260430T12Z_MSC_GDPS_SpecificHumidity_IsbL-0900_LatLon0.15_PT096H.grib2 2026-04-30 16:24 1.6M
20260430T12Z_MSC_GDPS_SpecificHumidity_IsbL-0925_LatLon0.15_PT096H.grib2 2026-04-30 16:24 1.6M
20260430T12Z_MSC_GDPS_SpecificHumidity_IsbL-0950_LatLon0.15_PT096H.grib2 2026-04-30 16:24 1.6M
20260430T12Z_MSC_GDPS_SpecificHumidity_IsbL-0970_LatLon0.15_PT096H.grib2 2026-04-30 16:24 1.5M
20260430T12Z_MSC_GDPS_SpecificHumidity_IsbL-0985_LatLon0.15_PT096H.grib2 2026-04-30 16:24 1.5M
20260430T12Z_MSC_GDPS_SpecificHumidity_IsbL-1000_LatLon0.15_PT096H.grib2 2026-04-30 16:24 1.5M
20260430T12Z_MSC_GDPS_SpecificHumidity_IsbL-1015_LatLon0.15_PT096H.grib2 2026-04-30 16:24 1.5M
20260430T12Z_MSC_GDPS_SpecificHumidity_Sfc_LatLon0.15_PT096H.grib2 2026-04-30 16:24 681K
20260430T12Z_MSC_GDPS_Thickness_IsbL-0850to0700_LatLon0.15_PT096H.grib2 2026-04-30 16:24 468K
20260430T12Z_MSC_GDPS_Thickness_IsbL-1000to0500_LatLon0.15_PT096H.grib2 2026-04-30 16:24 369K
20260430T12Z_MSC_GDPS_Thickness_IsbL-1000to0850_LatLon0.15_PT096H.grib2 2026-04-30 16:24 490K
20260430T12Z_MSC_GDPS_TotalCloudCover_Sfc_LatLon0.15_PT096H.grib2 2026-04-30 16:24 828K
20260430T12Z_MSC_GDPS_TotalTotalsIndex_Sfc_LatLon0.15_PT096H.grib2 2026-04-30 16:24 6.2M
20260430T12Z_MSC_GDPS_UVIndex-ClearSky_Sfc_LatLon0.15_PT096H.grib2 2026-04-30 16:45 1.0M
20260430T12Z_MSC_GDPS_UVIndex_Sfc_LatLon0.15_PT096H.grib2 2026-04-30 16:45 1.4M
20260430T12Z_MSC_GDPS_UpwardLongwaveRadiationFlux_NTAtm_LatLon0.15_PT096H.grib2 2026-04-30 16:24 840K
20260430T12Z_MSC_GDPS_VerticalVelocity_IsbL-0200_LatLon0.15_PT096H.grib2 2026-04-30 16:24 937K
20260430T12Z_MSC_GDPS_VerticalVelocity_IsbL-0250_LatLon0.15_PT096H.grib2 2026-04-30 16:24 1.0M
20260430T12Z_MSC_GDPS_VerticalVelocity_IsbL-0500_LatLon0.15_PT096H.grib2 2026-04-30 16:24 1.0M
20260430T12Z_MSC_GDPS_VerticalVelocity_IsbL-0600_LatLon0.15_PT096H.grib2 2026-04-30 16:24 1.1M
20260430T12Z_MSC_GDPS_VerticalVelocity_IsbL-0700_LatLon0.15_PT096H.grib2 2026-04-30 16:24 1.4M
20260430T12Z_MSC_GDPS_VerticalVelocity_IsbL-0850_LatLon0.15_PT096H.grib2 2026-04-30 16:24 1.6M
20260430T12Z_MSC_GDPS_WindChill_Sfc_LatLon0.15_PT096H.grib2 2026-04-30 16:24 5.3M
20260430T12Z_MSC_GDPS_WindDir_AGL-10m_LatLon0.15_PT096H.grib2 2026-04-30 16:24 1.3M
20260430T12Z_MSC_GDPS_WindDir_AGL-120m_LatLon0.15_PT096H.grib2 2026-04-30 16:24 1.3M
20260430T12Z_MSC_GDPS_WindDir_AGL-40m_LatLon0.15_PT096H.grib2 2026-04-30 16:24 1.4M
20260430T12Z_MSC_GDPS_WindDir_AGL-80m_LatLon0.15_PT096H.grib2 2026-04-30 16:24 1.4M
20260430T12Z_MSC_GDPS_WindDir_IsbL-0001_LatLon0.15_PT096H.grib2 2026-04-30 16:24 671K
20260430T12Z_MSC_GDPS_WindDir_IsbL-0005_LatLon0.15_PT096H.grib2 2026-04-30 16:24 816K
20260430T12Z_MSC_GDPS_WindDir_IsbL-0010_LatLon0.15_PT096H.grib2 2026-04-30 16:24 857K
20260430T12Z_MSC_GDPS_WindDir_IsbL-0020_LatLon0.15_PT096H.grib2 2026-04-30 16:24 952K
20260430T12Z_MSC_GDPS_WindDir_IsbL-0030_LatLon0.15_PT096H.grib2 2026-04-30 16:24 937K
20260430T12Z_MSC_GDPS_WindDir_IsbL-0050_LatLon0.15_PT096H.grib2 2026-04-30 16:24 944K
20260430T12Z_MSC_GDPS_WindDir_IsbL-0100_LatLon0.15_PT096H.grib2 2026-04-30 16:24 1.0M
20260430T12Z_MSC_GDPS_WindDir_IsbL-0150_LatLon0.15_PT096H.grib2 2026-04-30 16:24 1.0M
20260430T12Z_MSC_GDPS_WindDir_IsbL-0175_LatLon0.15_PT096H.grib2 2026-04-30 16:24 1.0M
20260430T12Z_MSC_GDPS_WindDir_IsbL-0200_LatLon0.15_PT096H.grib2 2026-04-30 16:24 1.1M
20260430T12Z_MSC_GDPS_WindDir_IsbL-0225_LatLon0.15_PT096H.grib2 2026-04-30 16:24 1.1M
20260430T12Z_MSC_GDPS_WindDir_IsbL-0250_LatLon0.15_PT096H.grib2 2026-04-30 16:24 1.1M
20260430T12Z_MSC_GDPS_WindDir_IsbL-0275_LatLon0.15_PT096H.grib2 2026-04-30 16:24 1.2M
20260430T12Z_MSC_GDPS_WindDir_IsbL-0300_LatLon0.15_PT096H.grib2 2026-04-30 16:24 1.2M
20260430T12Z_MSC_GDPS_WindDir_IsbL-0350_LatLon0.15_PT096H.grib2 2026-04-30 16:24 1.2M
20260430T12Z_MSC_GDPS_WindDir_IsbL-0400_LatLon0.15_PT096H.grib2 2026-04-30 16:24 1.3M
20260430T12Z_MSC_GDPS_WindDir_IsbL-0450_LatLon0.15_PT096H.grib2 2026-04-30 16:24 1.3M
20260430T12Z_MSC_GDPS_WindDir_IsbL-0500_LatLon0.15_PT096H.grib2 2026-04-30 16:24 1.3M
20260430T12Z_MSC_GDPS_WindDir_IsbL-0550_LatLon0.15_PT096H.grib2 2026-04-30 16:24 1.4M
20260430T12Z_MSC_GDPS_WindDir_IsbL-0600_LatLon0.15_PT096H.grib2 2026-04-30 16:24 1.4M
20260430T12Z_MSC_GDPS_WindDir_IsbL-0650_LatLon0.15_PT096H.grib2 2026-04-30 16:24 1.5M
20260430T12Z_MSC_GDPS_WindDir_IsbL-0700_LatLon0.15_PT096H.grib2 2026-04-30 16:24 1.6M
20260430T12Z_MSC_GDPS_WindDir_IsbL-0750_LatLon0.15_PT096H.grib2 2026-04-30 16:24 1.7M
20260430T12Z_MSC_GDPS_WindDir_IsbL-0800_LatLon0.15_PT096H.grib2 2026-04-30 16:24 1.8M
20260430T12Z_MSC_GDPS_WindDir_IsbL-0850_LatLon0.15_PT096H.grib2 2026-04-30 16:24 1.9M
20260430T12Z_MSC_GDPS_WindDir_IsbL-0875_LatLon0.15_PT096H.grib2 2026-04-30 16:24 1.9M
20260430T12Z_MSC_GDPS_WindDir_IsbL-0900_LatLon0.15_PT096H.grib2 2026-04-30 16:24 2.0M
20260430T12Z_MSC_GDPS_WindDir_IsbL-0925_LatLon0.15_PT096H.grib2 2026-04-30 16:24 2.0M
20260430T12Z_MSC_GDPS_WindDir_IsbL-0950_LatLon0.15_PT096H.grib2 2026-04-30 16:24 2.0M
20260430T12Z_MSC_GDPS_WindDir_IsbL-0970_LatLon0.15_PT096H.grib2 2026-04-30 16:24 2.0M
20260430T12Z_MSC_GDPS_WindDir_IsbL-0985_LatLon0.15_PT096H.grib2 2026-04-30 16:24 2.0M
20260430T12Z_MSC_GDPS_WindDir_IsbL-1000_LatLon0.15_PT096H.grib2 2026-04-30 16:24 2.0M
20260430T12Z_MSC_GDPS_WindDir_IsbL-1015_LatLon0.15_PT096H.grib2 2026-04-30 16:24 2.0M
20260430T12Z_MSC_GDPS_WindGust-Max_AGL-10m_LatLon0.15_PT096H.grib2 2026-04-30 16:24 2.2M
20260430T12Z_MSC_GDPS_WindGust-Min_AGL-10m_LatLon0.15_PT096H.grib2 2026-04-30 16:24 2.2M
20260430T12Z_MSC_GDPS_WindGust_AGL-10m_LatLon0.15_PT096H.grib2 2026-04-30 16:24 2.2M
20260430T12Z_MSC_GDPS_WindSpeed_AGL-10m_LatLon0.15_PT096H.grib2 2026-04-30 16:24 1.3M
20260430T12Z_MSC_GDPS_WindSpeed_AGL-120m_LatLon0.15_PT096H.grib2 2026-04-30 16:24 1.2M
20260430T12Z_MSC_GDPS_WindSpeed_AGL-40m_LatLon0.15_PT096H.grib2 2026-04-30 16:24 1.2M
20260430T12Z_MSC_GDPS_WindSpeed_AGL-80m_LatLon0.15_PT096H.grib2 2026-04-30 16:24 1.2M
20260430T12Z_MSC_GDPS_WindSpeed_IsbL-0001_LatLon0.15_PT096H.grib2 2026-04-30 16:24 644K
20260430T12Z_MSC_GDPS_WindSpeed_IsbL-0005_LatLon0.15_PT096H.grib2 2026-04-30 16:24 690K
20260430T12Z_MSC_GDPS_WindSpeed_IsbL-0010_LatLon0.15_PT096H.grib2 2026-04-30 16:24 627K
20260430T12Z_MSC_GDPS_WindSpeed_IsbL-0020_LatLon0.15_PT096H.grib2 2026-04-30 16:24 859K
20260430T12Z_MSC_GDPS_WindSpeed_IsbL-0030_LatLon0.15_PT096H.grib2 2026-04-30 16:24 868K
20260430T12Z_MSC_GDPS_WindSpeed_IsbL-0050_LatLon0.15_PT096H.grib2 2026-04-30 16:24 1.0M
20260430T12Z_MSC_GDPS_WindSpeed_IsbL-0100_LatLon0.15_PT096H.grib2 2026-04-30 16:24 1.1M
20260430T12Z_MSC_GDPS_WindSpeed_IsbL-0150_LatLon0.15_PT096H.grib2 2026-04-30 16:24 945K
20260430T12Z_MSC_GDPS_WindSpeed_IsbL-0175_LatLon0.15_PT096H.grib2 2026-04-30 16:24 1.0M
20260430T12Z_MSC_GDPS_WindSpeed_IsbL-0200_LatLon0.15_PT096H.grib2 2026-04-30 16:24 1.1M
20260430T12Z_MSC_GDPS_WindSpeed_IsbL-0225_LatLon0.15_PT096H.grib2 2026-04-30 16:24 1.1M
20260430T12Z_MSC_GDPS_WindSpeed_IsbL-0250_LatLon0.15_PT096H.grib2 2026-04-30 16:24 1.1M
20260430T12Z_MSC_GDPS_WindSpeed_IsbL-0275_LatLon0.15_PT096H.grib2 2026-04-30 16:24 1.1M
20260430T12Z_MSC_GDPS_WindSpeed_IsbL-0300_LatLon0.15_PT096H.grib2 2026-04-30 16:24 1.1M
20260430T12Z_MSC_GDPS_WindSpeed_IsbL-0350_LatLon0.15_PT096H.grib2 2026-04-30 16:24 1.1M
20260430T12Z_MSC_GDPS_WindSpeed_IsbL-0400_LatLon0.15_PT096H.grib2 2026-04-30 16:24 1.1M
20260430T12Z_MSC_GDPS_WindSpeed_IsbL-0450_LatLon0.15_PT096H.grib2 2026-04-30 16:24 1.1M
20260430T12Z_MSC_GDPS_WindSpeed_IsbL-0500_LatLon0.15_PT096H.grib2 2026-04-30 16:24 1.1M
20260430T12Z_MSC_GDPS_WindSpeed_IsbL-0550_LatLon0.15_PT096H.grib2 2026-04-30 16:24 1.1M
20260430T12Z_MSC_GDPS_WindSpeed_IsbL-0600_LatLon0.15_PT096H.grib2 2026-04-30 16:24 1.1M
20260430T12Z_MSC_GDPS_WindSpeed_IsbL-0650_LatLon0.15_PT096H.grib2 2026-04-30 16:24 1.4M
20260430T12Z_MSC_GDPS_WindSpeed_IsbL-0700_LatLon0.15_PT096H.grib2 2026-04-30 16:24 1.5M
20260430T12Z_MSC_GDPS_WindSpeed_IsbL-0750_LatLon0.15_PT096H.grib2 2026-04-30 16:24 1.6M
20260430T12Z_MSC_GDPS_WindSpeed_IsbL-0800_LatLon0.15_PT096H.grib2 2026-04-30 16:24 1.7M
20260430T12Z_MSC_GDPS_WindSpeed_IsbL-0850_LatLon0.15_PT096H.grib2 2026-04-30 16:24 1.7M
20260430T12Z_MSC_GDPS_WindSpeed_IsbL-0875_LatLon0.15_PT096H.grib2 2026-04-30 16:24 1.8M
20260430T12Z_MSC_GDPS_WindSpeed_IsbL-0900_LatLon0.15_PT096H.grib2 2026-04-30 16:24 1.8M
20260430T12Z_MSC_GDPS_WindSpeed_IsbL-0925_LatLon0.15_PT096H.grib2 2026-04-30 16:24 1.9M
20260430T12Z_MSC_GDPS_WindSpeed_IsbL-0950_LatLon0.15_PT096H.grib2 2026-04-30 16:24 1.9M
20260430T12Z_MSC_GDPS_WindSpeed_IsbL-0970_LatLon0.15_PT096H.grib2 2026-04-30 16:24 1.8M
20260430T12Z_MSC_GDPS_WindSpeed_IsbL-0985_LatLon0.15_PT096H.grib2 2026-04-30 16:24 1.8M
20260430T12Z_MSC_GDPS_WindSpeed_IsbL-1000_LatLon0.15_PT096H.grib2 2026-04-30 16:24 1.8M
20260430T12Z_MSC_GDPS_WindSpeed_IsbL-1015_LatLon0.15_PT096H.grib2 2026-04-30 16:24 1.8M
20260430T12Z_MSC_GDPS_WindU_AGL-10m_LatLon0.15_PT096H.grib2 2026-04-30 16:24 1.6M
20260430T12Z_MSC_GDPS_WindU_AGL-120m_LatLon0.15_PT096H.grib2 2026-04-30 16:24 967K
20260430T12Z_MSC_GDPS_WindU_AGL-40m_LatLon0.15_PT096H.grib2 2026-04-30 16:24 1.2M
20260430T12Z_MSC_GDPS_WindU_AGL-80m_LatLon0.15_PT096H.grib2 2026-04-30 16:24 968K
20260430T12Z_MSC_GDPS_WindU_IsbL-0001_LatLon0.15_PT096H.grib2 2026-04-30 16:24 500K
20260430T12Z_MSC_GDPS_WindU_IsbL-0005_LatLon0.15_PT096H.grib2 2026-04-30 16:24 689K
20260430T12Z_MSC_GDPS_WindU_IsbL-0010_LatLon0.15_PT096H.grib2 2026-04-30 16:24 699K
20260430T12Z_MSC_GDPS_WindU_IsbL-0020_LatLon0.15_PT096H.grib2 2026-04-30 16:24 732K
20260430T12Z_MSC_GDPS_WindU_IsbL-0030_LatLon0.15_PT096H.grib2 2026-04-30 16:24 741K
20260430T12Z_MSC_GDPS_WindU_IsbL-0050_LatLon0.15_PT096H.grib2 2026-04-30 16:24 700K
20260430T12Z_MSC_GDPS_WindU_IsbL-0100_LatLon0.15_PT096H.grib2 2026-04-30 16:24 867K
20260430T12Z_MSC_GDPS_WindU_IsbL-0150_LatLon0.15_PT096H.grib2 2026-04-30 16:24 1.0M
20260430T12Z_MSC_GDPS_WindU_IsbL-0175_LatLon0.15_PT096H.grib2 2026-04-30 16:24 1.0M
20260430T12Z_MSC_GDPS_WindU_IsbL-0200_LatLon0.15_PT096H.grib2 2026-04-30 16:24 837K
20260430T12Z_MSC_GDPS_WindU_IsbL-0225_LatLon0.15_PT096H.grib2 2026-04-30 16:24 850K
20260430T12Z_MSC_GDPS_WindU_IsbL-0250_LatLon0.15_PT096H.grib2 2026-04-30 16:24 854K
20260430T12Z_MSC_GDPS_WindU_IsbL-0275_LatLon0.15_PT096H.grib2 2026-04-30 16:24 883K
20260430T12Z_MSC_GDPS_WindU_IsbL-0300_LatLon0.15_PT096H.grib2 2026-04-30 16:24 875K
20260430T12Z_MSC_GDPS_WindU_IsbL-0350_LatLon0.15_PT096H.grib2 2026-04-30 16:24 888K
20260430T12Z_MSC_GDPS_WindU_IsbL-0400_LatLon0.15_PT096H.grib2 2026-04-30 16:24 889K
20260430T12Z_MSC_GDPS_WindU_IsbL-0450_LatLon0.15_PT096H.grib2 2026-04-30 16:24 1.1M
20260430T12Z_MSC_GDPS_WindU_IsbL-0500_LatLon0.15_PT096H.grib2 2026-04-30 16:24 1.1M
20260430T12Z_MSC_GDPS_WindU_IsbL-0550_LatLon0.15_PT096H.grib2 2026-04-30 16:24 1.1M
20260430T12Z_MSC_GDPS_WindU_IsbL-0600_LatLon0.15_PT096H.grib2 2026-04-30 16:24 1.1M
20260430T12Z_MSC_GDPS_WindU_IsbL-0650_LatLon0.15_PT096H.grib2 2026-04-30 16:24 1.2M
20260430T12Z_MSC_GDPS_WindU_IsbL-0700_LatLon0.15_PT096H.grib2 2026-04-30 16:24 1.2M
20260430T12Z_MSC_GDPS_WindU_IsbL-0750_LatLon0.15_PT096H.grib2 2026-04-30 16:24 1.2M
20260430T12Z_MSC_GDPS_WindU_IsbL-0800_LatLon0.15_PT096H.grib2 2026-04-30 16:24 1.3M
20260430T12Z_MSC_GDPS_WindU_IsbL-0850_LatLon0.15_PT096H.grib2 2026-04-30 16:24 1.4M
20260430T12Z_MSC_GDPS_WindU_IsbL-0875_LatLon0.15_PT096H.grib2 2026-04-30 16:24 1.5M
20260430T12Z_MSC_GDPS_WindU_IsbL-0900_LatLon0.15_PT096H.grib2 2026-04-30 16:24 1.4M
20260430T12Z_MSC_GDPS_WindU_IsbL-0925_LatLon0.15_PT096H.grib2 2026-04-30 16:24 1.4M
20260430T12Z_MSC_GDPS_WindU_IsbL-0950_LatLon0.15_PT096H.grib2 2026-04-30 16:24 1.4M
20260430T12Z_MSC_GDPS_WindU_IsbL-0970_LatLon0.15_PT096H.grib2 2026-04-30 16:24 1.4M
20260430T12Z_MSC_GDPS_WindU_IsbL-0985_LatLon0.15_PT096H.grib2 2026-04-30 16:24 1.7M
20260430T12Z_MSC_GDPS_WindU_IsbL-1000_LatLon0.15_PT096H.grib2 2026-04-30 16:24 1.7M
20260430T12Z_MSC_GDPS_WindU_IsbL-1015_LatLon0.15_PT096H.grib2 2026-04-30 16:24 1.7M
20260430T12Z_MSC_GDPS_WindV_AGL-10m_LatLon0.15_PT096H.grib2 2026-04-30 16:24 1.6M
20260430T12Z_MSC_GDPS_WindV_AGL-120m_LatLon0.15_PT096H.grib2 2026-04-30 16:24 964K
20260430T12Z_MSC_GDPS_WindV_AGL-40m_LatLon0.15_PT096H.grib2 2026-04-30 16:24 1.2M
20260430T12Z_MSC_GDPS_WindV_AGL-80m_LatLon0.15_PT096H.grib2 2026-04-30 16:24 964K
20260430T12Z_MSC_GDPS_WindV_IsbL-0001_LatLon0.15_PT096H.grib2 2026-04-30 16:24 777K
20260430T12Z_MSC_GDPS_WindV_IsbL-0005_LatLon0.15_PT096H.grib2 2026-04-30 16:24 854K
20260430T12Z_MSC_GDPS_WindV_IsbL-0010_LatLon0.15_PT096H.grib2 2026-04-30 16:24 884K
20260430T12Z_MSC_GDPS_WindV_IsbL-0020_LatLon0.15_PT096H.grib2 2026-04-30 16:24 937K
20260430T12Z_MSC_GDPS_WindV_IsbL-0030_LatLon0.15_PT096H.grib2 2026-04-30 16:24 940K
20260430T12Z_MSC_GDPS_WindV_IsbL-0050_LatLon0.15_PT096H.grib2 2026-04-30 16:24 1.0M
20260430T12Z_MSC_GDPS_WindV_IsbL-0100_LatLon0.15_PT096H.grib2 2026-04-30 16:24 858K
20260430T12Z_MSC_GDPS_WindV_IsbL-0150_LatLon0.15_PT096H.grib2 2026-04-30 16:24 1.0M
20260430T12Z_MSC_GDPS_WindV_IsbL-0175_LatLon0.15_PT096H.grib2 2026-04-30 16:24 809K
20260430T12Z_MSC_GDPS_WindV_IsbL-0200_LatLon0.15_PT096H.grib2 2026-04-30 16:24 836K
20260430T12Z_MSC_GDPS_WindV_IsbL-0225_LatLon0.15_PT096H.grib2 2026-04-30 16:24 844K
20260430T12Z_MSC_GDPS_WindV_IsbL-0250_LatLon0.15_PT096H.grib2 2026-04-30 16:24 904K
20260430T12Z_MSC_GDPS_WindV_IsbL-0275_LatLon0.15_PT096H.grib2 2026-04-30 16:24 931K
20260430T12Z_MSC_GDPS_WindV_IsbL-0300_LatLon0.15_PT096H.grib2 2026-04-30 16:24 922K
20260430T12Z_MSC_GDPS_WindV_IsbL-0350_LatLon0.15_PT096H.grib2 2026-04-30 16:24 933K
20260430T12Z_MSC_GDPS_WindV_IsbL-0400_LatLon0.15_PT096H.grib2 2026-04-30 16:24 876K
20260430T12Z_MSC_GDPS_WindV_IsbL-0450_LatLon0.15_PT096H.grib2 2026-04-30 16:24 877K
20260430T12Z_MSC_GDPS_WindV_IsbL-0500_LatLon0.15_PT096H.grib2 2026-04-30 16:24 1.1M
20260430T12Z_MSC_GDPS_WindV_IsbL-0550_LatLon0.15_PT096H.grib2 2026-04-30 16:24 1.1M
20260430T12Z_MSC_GDPS_WindV_IsbL-0600_LatLon0.15_PT096H.grib2 2026-04-30 16:24 1.1M
20260430T12Z_MSC_GDPS_WindV_IsbL-0650_LatLon0.15_PT096H.grib2 2026-04-30 16:24 1.2M
20260430T12Z_MSC_GDPS_WindV_IsbL-0700_LatLon0.15_PT096H.grib2 2026-04-30 16:24 1.2M
20260430T12Z_MSC_GDPS_WindV_IsbL-0750_LatLon0.15_PT096H.grib2 2026-04-30 16:24 1.3M
20260430T12Z_MSC_GDPS_WindV_IsbL-0800_LatLon0.15_PT096H.grib2 2026-04-30 16:24 1.3M
20260430T12Z_MSC_GDPS_WindV_IsbL-0850_LatLon0.15_PT096H.grib2 2026-04-30 16:24 1.4M
20260430T12Z_MSC_GDPS_WindV_IsbL-0875_LatLon0.15_PT096H.grib2 2026-04-30 16:24 1.4M
20260430T12Z_MSC_GDPS_WindV_IsbL-0900_LatLon0.15_PT096H.grib2 2026-04-30 16:24 1.4M
20260430T12Z_MSC_GDPS_WindV_IsbL-0925_LatLon0.15_PT096H.grib2 2026-04-30 16:24 1.4M
20260430T12Z_MSC_GDPS_WindV_IsbL-0950_LatLon0.15_PT096H.grib2 2026-04-30 16:24 1.4M
20260430T12Z_MSC_GDPS_WindV_IsbL-0970_LatLon0.15_PT096H.grib2 2026-04-30 16:24 1.4M
20260430T12Z_MSC_GDPS_WindV_IsbL-0985_LatLon0.15_PT096H.grib2 2026-04-30 16:24 1.4M
20260430T12Z_MSC_GDPS_WindV_IsbL-1000_LatLon0.15_PT096H.grib2 2026-04-30 16:24 1.7M
20260430T12Z_MSC_GDPS_WindV_IsbL-1015_LatLon0.15_PT096H.grib2 2026-04-30 16:24 1.6M